* Astronomy

Members Login
Post Info TOPIC: Asteroid 2011 KP36


L

Posts: 131433
Date:
Comet C/2011 KP36 (Spacewatch)
Permalink  
 




__________________


L

Posts: 131433
Date:
Permalink  
 

Comet C/2011 KP36 (Spacewatch) makes its closest approach to the Earth (4.296 AU) in the constellation Aquarius on the 24th August 2015 



__________________


L

Posts: 131433
Date:
RE: Asteroid 2011 KP36
Permalink  
 


Comet C/2011 KP36 (Spacewatch) is at Opposition (4.308 AU) in the constellation Aquarius on the 15th August 2015

Ephemeris

Date    TT    R. A. (2000) Decl.     Delta      r    Elong.  Phase   Mag
2015 08 14    21 20 13.0 -02 12 39   4.3111  5.3040   167.3     2.4  14.9
2015 08 15    21 19 52.7 -02 16 30   4.3082  5.3012   167.3     2.4  14.9
2015 08 16    21 19 32.4 -02 20 25   4.3057  5.2984   167.3     2.4  14.9
2015 08 17    21 19 12.1 -02 24 22   4.3034  5.2957   167.2     2.4  14.9
2015 08 18    21 18 52.0 -02 28 22   4.3014  5.2929   167.0     2.5  14.9
2015 08 19    21 18 31.9 -02 32 25   4.2997  5.2902   166.8     2.5  14.9
2015 08 20    21 18 12.0 -02 36 31   4.2983  5.2875   166.4     2.6  14.9
2015 08 21    21 17 52.2 -02 40 39   4.2972  5.2847   166.0     2.6  14.9
2015 08 22    21 17 32.5 -02 44 50   4.2964  5.2820   165.6     2.7  14.9
2015 08 23    21 17 13.0 -02 49 03   4.2958  5.2793   165.0     2.8  14.9
2015 08 24    21 16 53.7 -02 53 18   4.2956  5.2766   164.4     2.9  14.9
2015 08 25    21 16 34.6 -02 57 35   4.2956  5.2739   163.8     3.1  14.9
2015 08 26    21 16 15.8 -03 01 54   4.2959  5.2713   163.1     3.2  14.9
2015 08 27    21 15 57.1 -03 06 15   4.2965  5.2686   162.4     3.3  14.9
2015 08 28    21 15 38.8 -03 10 38   4.2973  5.2659   161.7     3.5  14.9
2015 08 29    21 15 20.7 -03 15 02   4.2985  5.2633   160.9     3.6  14.9
2015 08 30    21 15 02.9 -03 19 27   4.2999  5.2606   160.1     3.7  14.9
2015 08 31    21 14 45.4 -03 23 54   4.3016  5.2580   159.3     3.9  14.9


__________________


L

Posts: 131433
Date:
Comet C/2011 KP36 (SPACEWATCH)
Permalink  
 


Orbital elements:
    C/2011 KP36 (Spacewatch)
Epoch 2016 May 12.0 TT = JDT 2457520.5
T 2016 May 27.90578 TT                                  MPC
q   4.8856950            (2000.0)            P               Q
z  +0.0261766      Peri.  180.60076     +0.99446842     +0.09816614
 +/-0.0000000      Node   173.40584     -0.09496083     +0.99229345
e   0.8721094      Incl.   18.98722     -0.04488879     +0.07561168
From 92 observations 2011 May 21-2012 May 17

MPEC 2012 - K12



__________________


L

Posts: 131433
Date:
RE: Asteroid 2011 KP36
Permalink  
 


Orbital elements:
2011 KP36
Epoch 2012 Mar. 14.0 TT = JDT 2456000.5                 MPC
M 353.77717              (2000.0)            P               Q
n   0.00405751     Peri.  180.52716     +0.99451021     +0.09794142
a  38.9310742      Node   173.49755     -0.09477520     +0.99230888
e   0.8746633      Incl.   18.98240     -0.04435196     +0.07570048
P 243              H    9.4           G   0.15           U   2

MPEC 2012 - F43



__________________


L

Posts: 131433
Date:
Permalink  
 

Orbital elements:
2011 KP36
Epoch 2011 May 19.0 TT = JDT 2455700.5                  MPC
M 355.23239              (2000.0)            P               Q
n   0.00266722     Peri.  180.22294     +0.99365172     +0.10597689
a  51.4948070      Node   173.33012     -0.10270718     +0.99148991
e   0.9071053      Incl.   18.96709     -0.04590741     +0.07560851
P 370              H    9.4           G   0.15
From 52 observations 2011 May 21-June 13.

MPEC 2011 - L56



__________________
Page 1 of 1  sorted by
Quick Reply

Please log in to post quick replies.



Create your own FREE Forum
Report Abuse
Powered by ActiveBoard